Starlink 11552

operational
NORAD ID: 62907 Int'l Des: 2025-027 Owner: SPXS Country: US Constellation: starlink
LEOCIRCULAR

About Starlink 11552

Description loading...

Live Position

Loading 3D Globe...

Upcoming Passes

Altitude History

Altitude vs Time

uPlot chart will show altitude changes over time

Two-Line Element Set

1 62907U 25027A 25303.67969931 .00384051 00000-0 28368-2 0 9993
2 62907 43.0004 51.4371 0002092 310.9664 49.1023 15.71037794 42740
Epoch: Oct 30, 2025 • Age: 13 hours

Current Status

Altitude 366.8 km
Velocity 7.69 km/s
Sub-Earth Point -42.79°S, 157.84°W
Launch Date Feb 8, 2025
Age 0.7 years
Type internet

Technical Details

Classification Payload
Mass 960.00 kg
Dry Mass 910.00 kg
Total Mass 960.00 kg
Length 0.30 m
Diameter 4.10 m
Span 29.00 m
Shape Box + pan
Manufacturer SPXS
Bus Type Starlink V2MD
Phase Status In Orbit
Owner/State SPXS/US

Large Constellations

Loading constellations...